When you browse on this site, cookies collect data to enhance your experience and personalize the content and advertising you see.
Visit our Privacy Policy to learn more. By continuing to use the site, you agree to this use of cookies and data.
  • In Hungary
  • List of Countries
  • For 7 days
  • Water Temperature
  • Satellite Maps
  • Weather Map
  • News
  • Weather Widgets
  • user-avatar
    Login

    Hourly Weather Niemstow

    Today, 21 May, Tuesday

    Time Temperature Precipitation Wind Pressure Humidity
    00:00 +13°C° 0 mm 2 mps 743 mmHg 89%
    01:00 +13°C° 0 mm 2 mps 743 mmHg 90%
    02:00 +13°C° 0 mm 2 mps 743 mmHg 91%
    03:00 +12°C° 0 mm 2 mps 743 mmHg 92%
    04:00 +12°C° 0 mm 2 mps 743 mmHg 93%
    05:00 +14°C° 0 mm 2 mps 743 mmHg 88%
    06:00 +15°C° 0 mm 2 mps 744 mmHg 82%
    07:00 +17°C° 0 mm 2 mps 744 mmHg 76%
    08:00 +18°C° 0 mm 2 mps 744 mmHg 72%
    09:00 +19°C° 0 mm 2 mps 744 mmHg 68%
    10:00 +20°C° 0 mm 2 mps 744 mmHg 64%
    11:00 +21°C° 0 mm 1 mps 744 mmHg 62%
    12:00 +22°C° 0 mm 1 mps 744 mmHg 61%
    13:00 +22°C° 0 mm 1 mps 743 mmHg 59%
    14:00 +23°C° 0 mm 1 mps 743 mmHg 58%
    15:00 +23°C° 0 mm 1 mps 743 mmHg 56%
    16:00 +23°C° 0 mm 2 mps 743 mmHg 54%
    17:00 +21°C° 0 mm 2 mps 743 mmHg 61%
    18:00 +20°C° 0 mm 2 mps 743 mmHg 67%
    19:00 +19°C° 0 mm 2 mps 743 mmHg 74%
    20:00 +18°C° 0.1 mm 2 mps 743 mmHg 78%
    21:00 +17°C° 0.1 mm 3 mps 743 mmHg 82%
    22:00 +15°C° 0.1 mm 4 mps 743 mmHg 85%
    23:00 +15°C° 1.2 mm 4 mps 743 mmHg 88%

    Tomorrow, 22 May, Wednesday

    Time Temperature Precipitation Wind Pressure Humidity
    00:00 +15°C° 1.2 mm 4 mps 743 mmHg 92%
    01:00 +15°C° 1.2 mm 5 mps 744 mmHg 95%
    02:00 +15°C° 2 mm 5 mps 744 mmHg 95%
    03:00 +15°C° 2 mm 5 mps 744 mmHg 96%
    04:00 +15°C° 2 mm 5 mps 744 mmHg 96%
    05:00 +15°C° 1.7 mm 5 mps 744 mmHg 96%
    06:00 +15°C° 1.7 mm 6 mps 744 mmHg 96%
    07:00 +15°C° 1.7 mm 6 mps 744 mmHg 96%
    08:00 +15°C° 1 mm 6 mps 745 mmHg 95%
    09:00 +15°C° 1 mm 6 mps 745 mmHg 95%
    10:00 +15°C° 1 mm 6 mps 745 mmHg 94%
    11:00 +15°C° 0.3 mm 6 mps 746 mmHg 94%
    12:00 +15°C° 0.3 mm 7 mps 746 mmHg 93%
    13:00 +15°C° 0.3 mm 7 mps 746 mmHg 92%
    14:00 +15°C° 0.2 mm 7 mps 746 mmHg 92%
    15:00 +14°C° 0.2 mm 7 mps 747 mmHg 92%
    16:00 +13°C° 0.2 mm 8 mps 747 mmHg 92%
    17:00 +14°C° 0.1 mm 7 mps 747 mmHg 93%
    18:00 +12°C° 0.1 mm 7 mps 748 mmHg 93%
    19:00 +12°C° 0.1 mm 7 mps 748 mmHg 93%
    20:00 +12°C° 0.1 mm 7 mps 749 mmHg 93%
    21:00 +11°C° 0.1 mm 7 mps 749 mmHg 94%
    22:00 +11°C° 0.1 mm 7 mps 749 mmHg 94%
    23:00 +11°C° 0.2 mm 7 mps 750 mmHg 94%

    Day after tomorrow, 23 May, Thursday

    Time Temperature Precipitation Wind Pressure Humidity
    00:00 +11°C° 0.2 mm 7 mps 750 mmHg 94%
    01:00 +11°C° 0.2 mm 7 mps 750 mmHg 94%
    02:00 +10°C° 0.2 mm 7 mps 750 mmHg 94%
    03:00 +10°C° 0.2 mm 6 mps 751 mmHg 94%
    04:00 +10°C° 0.2 mm 6 mps 751 mmHg 94%
    05:00 +9°C° 0.3 mm 6 mps 751 mmHg 94%
    06:00 +9°C° 0.3 mm 6 mps 752 mmHg 94%
    07:00 +9°C° 0.3 mm 6 mps 752 mmHg 94%
    08:00 +9°C° 0.1 mm 6 mps 752 mmHg 93%
    09:00 +9°C° 0.1 mm 5 mps 753 mmHg 92%
    10:00 +9°C° 0.1 mm 5 mps 753 mmHg 91%
    11:00 +12°C° 0 mm 4 mps 753 mmHg 85%
    12:00 +13°C° 0 mm 4 mps 753 mmHg 78%
    13:00 +14°C° 0 mm 3 mps 753 mmHg 71%
    14:00 +17°C° 0 mm 4 mps 753 mmHg 65%
    15:00 +18°C° 0 mm 4 mps 753 mmHg 58%
    16:00 +19°C° 0 mm 5 mps 752 mmHg 52%
    17:00 +18°C° 0 mm 4 mps 752 mmHg 58%
    18:00 +17°C° 0 mm 3 mps 753 mmHg 64%
    19:00 +15°C° 0 mm 2 mps 753 mmHg 70%
    20:00 +14°C° 0 mm 2 mps 753 mmHg 72%
    21:00 +12°C° 0 mm 2 mps 753 mmHg 75%
    22:00 +10°C° 0 mm 2 mps 754 mmHg 77%
    23:00 +9°C° 0 mm 2 mps 754 mmHg 80%

    24 May, Friday

    Time Temperature Precipitation Wind Pressure Humidity
    00:00 +9°C° 0 mm 2 mps 753 mmHg 83%
    01:00 +9°C° 0 mm 1 mps 753 mmHg 86%
    02:00 +8°C° 0 mm 2 mps 753 mmHg 87%
    03:00 +7°C° 0 mm 2 mps 753 mmHg 88%
    04:00 +7°C° 0 mm 2 mps 753 mmHg 89%
    05:00 +9°C° 0 mm 2 mps 753 mmHg 84%
    06:00 +12°C° 0 mm 2 mps 753 mmHg 78%
    07:00 +13°C° 0 mm 2 mps 753 mmHg 72%
    08:00 +15°C° 0 mm 2 mps 753 mmHg 68%
    09:00 +16°C° 0 mm 2 mps 752 mmHg 64%
    10:00 +18°C° 0 mm 2 mps 752 mmHg 59%
    11:00 +20°C° 0 mm 1 mps 752 mmHg 57%
    12:00 +20°C° 0 mm 1 mps 751 mmHg 56%
    13:00 +21°C° 0 mm 1 mps 751 mmHg 54%
    14:00 +21°C° 0 mm 1 mps 751 mmHg 53%
    15:00 +22°C° 0 mm 1 mps 750 mmHg 53%
    16:00 +21°C° 0 mm 2 mps 750 mmHg 52%
    17:00 +20°C° 0 mm 2 mps 750 mmHg 57%
    18:00 +19°C° 0 mm 2 mps 749 mmHg 62%
    19:00 +17°C° 0 mm 2 mps 749 mmHg 67%
    20:00 +16°C° 0 mm 2 mps 749 mmHg 69%
    21:00 +15°C° 0 mm 2 mps 749 mmHg 70%
    22:00 +13°C° 0 mm 3 mps 749 mmHg 72%
    23:00 +13°C° 0.1 mm 3 mps 749 mmHg 75%

    25 May, Saturday

    Time Temperature Precipitation Wind Pressure Humidity
    00:00 +12°C° 0.1 mm 3 mps 749 mmHg 79%
    01:00 +12°C° 0.1 mm 3 mps 749 mmHg 82%
    02:00 +12°C° 0 mm 3 mps 749 mmHg 86%
    03:00 +11°C° 0 mm 3 mps 749 mmHg 91%
    04:00 +11°C° 0 mm 4 mps 749 mmHg 95%
    05:00 +11°C° 0 mm 4 mps 749 mmHg 91%
    06:00 +12°C° 0 mm 5 mps 750 mmHg 88%
    07:00 +12°C° 0 mm 5 mps 750 mmHg 85%
    08:00 +13°C° 0 mm 5 mps 750 mmHg 79%
    09:00 +14°C° 0 mm 6 mps 751 mmHg 73%
    10:00 +14°C° 0 mm 6 mps 751 mmHg 67%
    11:00 +15°C° 0 mm 6 mps 751 mmHg 66%
    12:00 +15°C° 0 mm 6 mps 751 mmHg 66%
    13:00 +15°C° 0 mm 6 mps 750 mmHg 65%
    14:00 +15°C° 0 mm 6 mps 750 mmHg 66%
    15:00 +15°C° 0 mm 6 mps 750 mmHg 66%
    16:00 +15°C° 0 mm 6 mps 750 mmHg 66%
    17:00 +14°C° 0 mm 6 mps 750 mmHg 70%
    18:00 +13°C° 0 mm 5 mps 750 mmHg 73%
    19:00 +12°C° 0 mm 5 mps 750 mmHg 77%
    20:00 +12°C° 0 mm 4 mps 750 mmHg 79%
    21:00 +11°C° 0 mm 4 mps 750 mmHg 80%
    22:00 +11°C° 0 mm 4 mps 750 mmHg 82%
    23:00 +9°C° 0.1 mm 5 mps 750 mmHg 84%

    26 May, Sunday

    Time Temperature Precipitation Wind Pressure Humidity
    00:00 +9°C° 0.1 mm 5 mps 750 mmHg 87%
    01:00 +9°C° 0.1 mm 5 mps 750 mmHg 89%
    02:00 +9°C° 0.1 mm 5 mps 749 mmHg 89%
    03:00 +9°C° 0.1 mm 5 mps 749 mmHg 88%
    04:00 +9°C° 0.1 mm 5 mps 749 mmHg 87%
    05:00 +9°C° 0 mm 6 mps 749 mmHg 85%
    06:00 +8°C° 0 mm 6 mps 749 mmHg 83%
    07:00 +8°C° 0 mm 7 mps 749 mmHg 81%
    08:00 +8°C° 0.1 mm 7 mps 749 mmHg 79%
    09:00 +9°C° 0.1 mm 7 mps 749 mmHg 78%
    10:00 +9°C° 0.1 mm 7 mps 749 mmHg 76%
    11:00 +9°C° 0 mm 7 mps 749 mmHg 73%
    12:00 +10°C° 0 mm 7 mps 749 mmHg 70%
    13:00 +11°C° 0 mm 8 mps 749 mmHg 68%
    14:00 +11°C° 0 mm 7 mps 749 mmHg 68%
    15:00 +11°C° 0 mm 7 mps 749 mmHg 69%
    16:00 +11°C° 0 mm 7 mps 748 mmHg 69%
    17:00 +11°C° 0 mm 6 mps 748 mmHg 71%
    18:00 +12°C° 0 mm 5 mps 748 mmHg 73%
    19:00 +12°C° 0 mm 4 mps 748 mmHg 75%
    20:00 +11°C° 0 mm 4 mps 749 mmHg 76%
    21:00 +10°C° 0 mm 4 mps 749 mmHg 77%
    22:00 +10°C° 0 mm 4 mps 749 mmHg 78%
    23:00 +8°C° 0 mm 4 mps 749 mmHg 77%
    Show more